Location: Ceske Budejovice
(48.9830°N, 14.4670°E)
Time: 05:44:56
(UTC+02:00)

DX 1 - Pass Details

Date: 23 August 2019
Orbit: 620 x 630 km, 98.4° (Epoch: 21 September)

Event Time Altitude Azimuth Distance (km) Brightness Sun altitude
Rises 03:59:46 0° 152° (SSE) 2,885 ? -18.3°
Reaches altitude 10° 04:01:58 10° 148° (SSE) 1,984 ? -18.0°
Maximum altitude 04:06:10 55° 71° (ENE) 748 ? -17.5°
Drops below altitude 10° 04:10:26 10° 353° (N) 2,002 ? -17.0°
Sets 04:12:39 0° 350° (N) 2,915 ? -16.7°
